When you browse on this site, cookies collect data to enhance your experience and personalize the content and advertising you see.
Visit our Privacy Policy to learn more. By continuing to use the site, you agree to this use of cookies and data.
  • In Österreich
  • Länderverzeichnis
  • Für 7 Tage
  • Wassertemperatur
  • Satellitenkarten
  • Wetterkarte
  • News
  • Widgets
  • user-avatar
    Anmelden

    Stündliche Wetter Trabzon

    Heute, 19 November, Montag

    Zeit Temperatur Niederschläge Wind Luftdruck Luftfeuchtigkeit
    00:00 +10°C° 0 mm 4 m/S 768 mmHg 63%
    01:00 +10°C° 0 mm 4 m/S 767 mmHg 64%
    02:00 +10°C° 0 mm 4 m/S 767 mmHg 64%
    03:00 +10°C° 0 mm 4 m/S 767 mmHg 64%
    04:00 +10°C° 0 mm 4 m/S 767 mmHg 64%
    05:00 +10°C° 0 mm 4 m/S 766 mmHg 64%
    06:00 +10°C° 0 mm 4 m/S 766 mmHg 65%
    07:00 +11°C° 0 mm 4 m/S 766 mmHg 64%
    08:00 +12°C° 0 mm 4 m/S 766 mmHg 64%
    09:00 +13°C° 0 mm 4 m/S 766 mmHg 63%
    10:00 +14°C° 0 mm 4 m/S 765 mmHg 62%
    11:00 +17°C° 0 mm 4 m/S 765 mmHg 62%
    12:00 +18°C° 0 mm 3 m/S 764 mmHg 61%
    13:00 +18°C° 0 mm 3 m/S 764 mmHg 62%
    14:00 +19°C° 0 mm 3 m/S 764 mmHg 64%
    15:00 +19°C° 0 mm 4 m/S 764 mmHg 65%
    16:00 +17°C° 0 mm 4 m/S 764 mmHg 65%
    17:00 +15°C° 0 mm 4 m/S 764 mmHg 65%
    18:00 +14°C° 0 mm 5 m/S 764 mmHg 65%
    19:00 +14°C° 0 mm 5 m/S 764 mmHg 64%
    20:00 +14°C° 0 mm 4 m/S 764 mmHg 64%
    21:00 +14°C° 0 mm 4 m/S 764 mmHg 63%
    22:00 +14°C° 0 mm 4 m/S 764 mmHg 62%
    23:00 +14°C° 0 mm 4 m/S 764 mmHg 62%

    Morgen, 20 November, Dienstag

    Zeit Temperatur Niederschläge Wind Luftdruck Luftfeuchtigkeit
    00:00 +14°C° 0 mm 4 m/S 765 mmHg 62%
    01:00 +14°C° 0 mm 4 m/S 765 mmHg 61%
    02:00 +14°C° 0 mm 4 m/S 765 mmHg 61%
    03:00 +14°C° 0 mm 4 m/S 765 mmHg 60%
    04:00 +14°C° 0 mm 4 m/S 765 mmHg 61%
    05:00 +14°C° 0 mm 4 m/S 765 mmHg 62%
    06:00 +14°C° 0 mm 4 m/S 765 mmHg 62%
    07:00 +16°C° 0.1 mm 3 m/S 765 mmHg 63%
    08:00 +16°C° 0.1 mm 3 m/S 766 mmHg 65%
    09:00 +16°C° 0.1 mm 3 m/S 766 mmHg 66%
    10:00 +17°C° 0.1 mm 2 m/S 766 mmHg 67%
    11:00 +17°C° 0.1 mm 2 m/S 766 mmHg 68%
    12:00 +18°C° 0.1 mm 2 m/S 766 mmHg 69%
    13:00 +18°C° 0.4 mm 2 m/S 766 mmHg 72%
    14:00 +18°C° 0.4 mm 2 m/S 766 mmHg 75%
    15:00 +17°C° 0.4 mm 2 m/S 766 mmHg 79%
    16:00 +16°C° 0.2 mm 2 m/S 766 mmHg 81%
    17:00 +15°C° 0.2 mm 1 m/S 766 mmHg 83%
    18:00 +14°C° 0.2 mm 1 m/S 766 mmHg 85%
    19:00 +14°C° 0.1 mm 1 m/S 766 mmHg 82%
    20:00 +14°C° 0.1 mm 1 m/S 766 mmHg 79%
    21:00 +14°C° 0.1 mm 2 m/S 767 mmHg 76%
    22:00 +13°C° 0 mm 2 m/S 767 mmHg 76%
    23:00 +13°C° 0 mm 2 m/S 766 mmHg 75%

    übermorgen, 21 November, Mittwoch

    Zeit Temperatur Niederschläge Wind Luftdruck Luftfeuchtigkeit
    00:00 +13°C° 0 mm 2 m/S 766 mmHg 74%
    01:00 +13°C° 0 mm 2 m/S 766 mmHg 73%
    02:00 +13°C° 0 mm 2 m/S 766 mmHg 72%
    03:00 +13°C° 0 mm 2 m/S 766 mmHg 71%
    04:00 +13°C° 0 mm 2 m/S 765 mmHg 70%
    05:00 +12°C° 0 mm 3 m/S 765 mmHg 70%
    06:00 +12°C° 0 mm 3 m/S 764 mmHg 70%
    07:00 +13°C° 0 mm 3 m/S 764 mmHg 70%
    08:00 +15°C° 0 mm 2 m/S 764 mmHg 70%
    09:00 +16°C° 0 mm 2 m/S 764 mmHg 70%
    10:00 +17°C° 0 mm 3 m/S 763 mmHg 70%
    11:00 +17°C° 0 mm 3 m/S 763 mmHg 70%
    12:00 +18°C° 0 mm 3 m/S 762 mmHg 71%
    13:00 +18°C° 0.1 mm 3 m/S 761 mmHg 72%
    14:00 +18°C° 0.1 mm 3 m/S 761 mmHg 73%
    15:00 +18°C° 0.1 mm 3 m/S 761 mmHg 75%
    16:00 +17°C° 0.1 mm 3 m/S 761 mmHg 75%
    17:00 +16°C° 0.1 mm 3 m/S 760 mmHg 76%
    18:00 +16°C° 0.1 mm 3 m/S 760 mmHg 77%
    19:00 +16°C° 0.1 mm 3 m/S 760 mmHg 76%
    20:00 +16°C° 0.1 mm 3 m/S 760 mmHg 75%
    21:00 +14°C° 0.1 mm 3 m/S 760 mmHg 75%
    22:00 +14°C° 0.1 mm 3 m/S 760 mmHg 74%
    23:00 +14°C° 0.1 mm 3 m/S 760 mmHg 73%

    22 November, Donnerstag

    Zeit Temperatur Niederschläge Wind Luftdruck Luftfeuchtigkeit
    00:00 +14°C° 0.1 mm 3 m/S 760 mmHg 73%
    01:00 +14°C° 0.1 mm 3 m/S 760 mmHg 73%
    02:00 +14°C° 0.1 mm 3 m/S 760 mmHg 73%
    03:00 +15°C° 0.1 mm 2 m/S 759 mmHg 73%
    04:00 +15°C° 0.1 mm 2 m/S 759 mmHg 75%
    05:00 +15°C° 0.1 mm 2 m/S 759 mmHg 76%
    06:00 +15°C° 0.1 mm 2 m/S 759 mmHg 77%
    07:00 +15°C° 0.2 mm 2 m/S 759 mmHg 78%
    08:00 +15°C° 0.2 mm 2 m/S 760 mmHg 78%
    09:00 +15°C° 0.2 mm 2 m/S 760 mmHg 78%
    10:00 +16°C° 0.2 mm 2 m/S 760 mmHg 78%
    11:00 +16°C° 0.2 mm 2 m/S 759 mmHg 78%
    12:00 +17°C° 0.2 mm 2 m/S 759 mmHg 78%
    13:00 +16°C° 0.2 mm 2 m/S 759 mmHg 80%
    14:00 +16°C° 0.2 mm 2 m/S 759 mmHg 82%
    15:00 +16°C° 0.2 mm 2 m/S 758 mmHg 84%
    16:00 +15°C° 0.2 mm 2 m/S 759 mmHg 86%
    17:00 +15°C° 0.2 mm 2 m/S 759 mmHg 88%
    18:00 +14°C° 0.2 mm 2 m/S 759 mmHg 89%
    19:00 +13°C° 0.6 mm 3 m/S 760 mmHg 90%
    20:00 +13°C° 0.6 mm 3 m/S 760 mmHg 90%
    21:00 +13°C° 0.6 mm 3 m/S 760 mmHg 90%
    22:00 +13°C° 0.7 mm 4 m/S 761 mmHg 90%
    23:00 +13°C° 0.7 mm 5 m/S 761 mmHg 91%

    23 November, Freitag

    Zeit Temperatur Niederschläge Wind Luftdruck Luftfeuchtigkeit
    00:00 +12°C° 0.7 mm 5 m/S 761 mmHg 91%
    01:00 +12°C° 0.3 mm 5 m/S 761 mmHg 91%
    02:00 +12°C° 0.3 mm 5 m/S 762 mmHg 92%
    03:00 +12°C° 0.3 mm 5 m/S 762 mmHg 92%
    04:00 +12°C° 0.3 mm 5 m/S 762 mmHg 92%
    05:00 +11°C° 0.3 mm 6 m/S 762 mmHg 92%
    06:00 +11°C° 0.3 mm 6 m/S 763 mmHg 91%
    07:00 +11°C° 0.3 mm 6 m/S 763 mmHg 90%
    08:00 +10°C° 0.3 mm 6 m/S 764 mmHg 89%
    09:00 +10°C° 0.3 mm 6 m/S 765 mmHg 88%
    10:00 +10°C° 0.2 mm 6 m/S 765 mmHg 87%
    11:00 +11°C° 0.2 mm 6 m/S 765 mmHg 86%
    12:00 +11°C° 0.2 mm 6 m/S 765 mmHg 85%
    13:00 +10°C° 0.2 mm 6 m/S 765 mmHg 84%
    14:00 +10°C° 0.2 mm 6 m/S 765 mmHg 84%
    15:00 +10°C° 0.2 mm 5 m/S 765 mmHg 83%
    16:00 +10°C° 0.1 mm 5 m/S 766 mmHg 84%
    17:00 +9°C° 0.1 mm 5 m/S 766 mmHg 85%
    18:00 +10°C° 0.1 mm 4 m/S 767 mmHg 85%
    19:00 +10°C° 0 mm 4 m/S 767 mmHg 86%
    20:00 +10°C° 0 mm 4 m/S 768 mmHg 86%
    21:00 +10°C° 0 mm 4 m/S 768 mmHg 86%
    22:00 +8°C° 0 mm 4 m/S 768 mmHg 86%
    23:00 +9°C° 0 mm 3 m/S 768 mmHg 87%

    24 November, Samstag

    Zeit Temperatur Niederschläge Wind Luftdruck Luftfeuchtigkeit
    00:00 +9°C° 0 mm 3 m/S 769 mmHg 87%
    01:00 +9°C° 0 mm 3 m/S 769 mmHg 87%
    02:00 +9°C° 0 mm 2 m/S 769 mmHg 87%
    03:00 +9°C° 0 mm 2 m/S 769 mmHg 87%
    04:00 +9°C° 0 mm 2 m/S 769 mmHg 87%
    05:00 +9°C° 0 mm 2 m/S 769 mmHg 87%
    06:00 +9°C° 0 mm 1 m/S 769 mmHg 87%
    07:00 +10°C° 0 mm 1 m/S 769 mmHg 85%
    08:00 +10°C° 0 mm 1 m/S 769 mmHg 82%
    09:00 +11°C° 0 mm 1 m/S 769 mmHg 79%
    10:00 +12°C° 0 mm 1 m/S 769 mmHg 79%
    11:00 +13°C° 0 mm 1 m/S 768 mmHg 78%
    12:00 +14°C° 0 mm 2 m/S 768 mmHg 77%
    13:00 +14°C° 0 mm 2 m/S 767 mmHg 78%
    14:00 +14°C° 0 mm 2 m/S 767 mmHg 80%
    15:00 +14°C° 0 mm 2 m/S 767 mmHg 82%
    16:00 +13°C° 0 mm 1 m/S 767 mmHg 83%
    17:00 +12°C° 0 mm 1 m/S 767 mmHg 84%
    18:00 +11°C° 0 mm 1 m/S 767 mmHg 85%
    19:00 +11°C° 0 mm 1 m/S 767 mmHg 83%
    20:00 +11°C° 0 mm 1 m/S 767 mmHg 82%
    21:00 +11°C° 0 mm 1 m/S 767 mmHg 81%
    22:00 +11°C° 0 mm 1 m/S 767 mmHg 81%
    23:00 +11°C° 0 mm 1 m/S 767 mmHg 81%
    Mehr zeigen